Location: Berg
(48.4333°N, 13.9167°E)
Time: 05:40:33
(UTC+00:00)

Cosmos 1674 - Pass Details

Date: 18 September 2020
Orbit: 494 x 518 km, 82.5° (Epoch: 29 October)

Event Time Altitude Azimuth Distance (km) Brightness Sun altitude
Rises 19:02:42 0° 351° (N) 2,655 6.8 -18.9°
Reaches altitude 10° 19:04:51 10° 353° (N) 1,762 5.8 -19.2°
Maximum altitude 19:08:43 76° 79° (E) 541 2.5 -19.8°
Enters shadow 19:09:21 58° 145° (SE) 608 2.7 -19.9°
